TimeEDT,TemperatureF,Dew PointF,Humidity,Sea Level PressureIn,VisibilityMPH,Wind Direction,Wind SpeedMPH,Gust SpeedMPH,PrecipitationIn,Events,Conditions,WindDirDegrees,DateUTC
12:54 AM,32.0,24.1,73,30.36,10.0,SSE,3.5,-,N/A,,Clear,150,2014-04-20 04:54:00
1:54 AM,28.0,24.1,85,30.36,10.0,SE,3.5,-,N/A,,Clear,130,2014-04-20 05:54:00
2:54 AM,30.0,25.0,82,30.34,10.0,SSE,5.8,-,N/A,,Scattered Clouds,160,2014-04-20 06:54:00
3:54 AM,34.0,27.0,75,30.34,10.0,SSE,5.8,-,N/A,,Overcast,150,2014-04-20 07:54:00
4:54 AM,35.1,28.0,76,30.33,10.0,SE,3.5,-,N/A,,Overcast,140,2014-04-20 08:54:00
5:54 AM,36.0,28.9,76,30.32,10.0,Calm,Calm,-,N/A,,Overcast,0,2014-04-20 09:54:00
6:54 AM,36.0,30.0,79,30.32,10.0,SSE,4.6,-,N/A,,Overcast,150,2014-04-20 10:54:00
7:54 AM,37.9,32.0,79,30.32,10.0,SSE,6.9,-,N/A,,Mostly Cloudy,160,2014-04-20 11:54:00
8:54 AM,44.1,32.0,63,30.31,10.0,SSE,11.5,-,N/A,,Mostly Cloudy,160,2014-04-20 12:54:00
9:54 AM,50.0,28.9,44,30.29,10.0,South,12.7,19.6,N/A,,Partly Cloudy,170,2014-04-20 13:54:00
10:54 AM,54.0,28.0,37,30.26,10.0,South,12.7,-,N/A,,Partly Cloudy,170,2014-04-20 14:54:00
11:54 AM,55.9,28.9,36,30.25,10.0,South,11.5,-,N/A,,Mostly Cloudy,180,2014-04-20 15:54:00
12:54 PM,55.9,28.0,34,30.22,10.0,South,8.1,-,N/A,,Overcast,170,2014-04-20 16:54:00
1:54 PM,54.0,35.1,49,30.20,10.0,East,8.1,-,N/A,,Overcast,90,2014-04-20 17:54:00
2:54 PM,51.1,37.9,61,30.18,10.0,ESE,4.6,-,0.00,,Overcast,120,2014-04-20 18:54:00
3:54 PM,48.9,37.0,64,30.16,10.0,ENE,4.6,-,N/A,,Overcast,70,2014-04-20 19:54:00
4:54 PM,46.9,37.0,68,30.16,10.0,NE,5.8,-,0.00,Rain,Light Rain,40,2014-04-20 20:54:00
5:54 PM,45.0,36.0,71,30.13,10.0,ESE,6.9,-,0.00,Rain,Light Rain,120,2014-04-20 21:54:00
6:54 PM,45.0,36.0,71,30.11,10.0,SE,3.5,-,0.00,,Mostly Cloudy,130,2014-04-20 22:54:00
7:54 PM,45.0,37.0,74,30.08,10.0,SSE,3.5,-,N/A,,Mostly Cloudy,150,2014-04-20 23:54:00
8:54 PM,46.9,37.0,68,30.06,10.0,SSE,5.8,-,N/A,,Overcast,150,2014-04-21 00:54:00
9:54 PM,46.0,37.9,73,30.07,10.0,Calm,Calm,-,N/A,,Scattered Clouds,0,2014-04-21 01:54:00
10:54 PM,46.9,37.9,71,30.06,10.0,Calm,Calm,-,N/A,,Overcast,0,2014-04-21 02:54:00
11:54 PM,48.0,39.0,71,30.06,10.0,WNW,3.5,-,N/A,,Overcast,290,2014-04-21 03:54:00